{"data":{"norad_id":62787,"epoch":"2026-05-25T03:14:23.011584Z","epoch_age_seconds":67344,"freshness":"FRESH","line1":"1 62787U 25016C   26145.13498856  .00000110  00000+0  15132-3 0  9992","line2":"2 62787  88.9738  86.2618 0003039  68.5945 291.5530 13.51012489 69260","mean_motion":13.51012489,"eccentricity":0.0003039,"inclination_deg":88.9738,"raan_deg":86.2618,"arg_perigee_deg":68.5945,"mean_anomaly_deg":291.553,"bstar":0.00015132,"rev_number":6926,"period_min":106.58672748953,"perigee_km":1066.2726488148,"apogee_km":1070.7987364774,"semimajor_km":7446.6726926461,"source":"CELESTRAK","updated_at":"2026-05-25T13:38:03.250884Z"}}